(11554) Asios = 1994 EL6 = 1993 BZ12 = 1998 OD2

Discovered at La Silla on 1993-01-22 by E. W. Elst.
(11554) Asios = 1993 BZ12

Asios was a Trojan warrior and one of the leaders in the assault on the Greek wall. He challenged Idomeneos and was killed by him. [Ref: Minor Planet Circ. 47299]

Orbit

Orbit type: Jupiter Trojan

Note: WebGL enabled browser required.

epoch2023-09-13.0
epoch JD2460200.5
perihelion date2020-11-24.80233
perihelion JD2459178.30233
argument of perihelion (°)129.01352
ascending node (°)128.07123
inclination (°)13.69876
eccentricity0.0648054
perihelion distance (AU)4.9428640
Tisserand w.r.t. Jupiter2.9
ΔV w.r.t. Earth (km/sec)13.0
semimajor axis (AU)5.2853855
mean anomaly (°)82.91321
mean daily motion (°/day)0.08111270
aphelion distance (AU)5.628
period (years)12.15
P-vector [x]-0.20610957
P-vector [y]-0.95496036
P-vector [z]-0.21347027
Q-vector [x]0.96060480
Q-vector [y]-0.15589724
Q-vector [z]-0.23007493
absolute magnitude10.51
phase slope0.15
uncertainty0
referenceMPEC 2024-C06
observations used3199
oppositions27
arc length (days)12078
first opposition used1990
last opposition used2024
residual rms (arc-secs)0.56
perturbers coarse indicatorM-v
perturbers precise indicator003Ek
first observation date used1990-12-11.0
last observation date used2024-01-05.0
computer nameMPCLINUX
JD of orbit computation2456700.437632
perihelion JD uncertainty (days)4.5733E-04
argument of perihelion uncertainty (°)4.3282E-05
ascending node uncertainty (°)2.1490E-05
inclination uncertainty (°)4.3830E-06
eccentricity uncertainty 4.2695E-08
perihelion distance uncertainty (AU)2.2581E-07
Minimum Orbit Intersection Distances (in AU)
for orbit epoch: 2460200.5, reference: E2024-A55
Mercury4.49138
Venus4.23077
Earth3.94598
Mars3.4817
Jupiter0.00979
Saturn3.53897
Uranus13.0953
Neptune24.4141

Observations

3235 total observations over interval: 1990 12 11.31182 – 2024 01 05.275737
These data are available for download (format description).

Date (UT) J2000 RA J2000 Dec Magn Location Ref
1990 12 11.31182 04 42 19.48 +08 04 55.6 18.6 V 691 – Steward Observatory, Kitt Peak-Spacewatch MPS 78851
1990 12 11.33308 04 42 18.79 +08 04 55.9 18.6 V 691 – Steward Observatory, Kitt Peak-Spacewatch MPS 78851
1990 12 11.35413 04 42 18.12 +08 04 56.2 18.6 V 691 – Steward Observatory, Kitt Peak-Spacewatch MPS 78851
1993 01 22.22336 08 58 15.21 +17 43 16.5   809 – European Southern Observatory, La Silla MPC 21748
1993 01 22.23652 08 58 14.81 +17 43 19.5   809 – European Southern Observatory, La Silla MPC 21748
1993 01 22.24968 08 58 14.43 +17 43 21.9   809 – European Southern Observatory, La Silla MPC 21748
1993 01 28.16181 08 55 10.40 +18 04 42.4 18.3   809 – European Southern Observatory, La Silla MPC 21748
1993 01 28.17500 08 55 09.93 +18 04 44.8   809 – European Southern Observatory, La Silla MPC 21748
1993 01 28.18819 08 55 09.46 +18 04 48.2   809 – European Southern Observatory, La Silla MPC 21748
1994 03 09.97778 11 08 57.32 +16 12 13.0 18.2   010 – Caussols MPC 23268
1994 03 09.98819 11 08 56.98 +16 12 15.7   010 – Caussols MPC 23268
1994 03 09.99861 11 08 56.61 +16 12 17.7   010 – Caussols MPC 23268
1994 03 10.97708 11 08 27.90 +16 16 15.3   010 – Caussols MPC 23268
1994 03 10.98750 11 08 27.50 +16 16 17.9   010 – Caussols MPC 23268
1994 03 10.99792 11 08 27.21 +16 16 20.4   010 – Caussols MPC 23268
1998 06 21.40122 21 14 28.75 -15 49 19.3 19.4 V 691 – Steward Observatory, Kitt Peak-Spacewatch MPS 80658
1998 06 21.42312 21 14 28.46 -15 49 22.5 19.4 V 691 – Steward Observatory, Kitt Peak-Spacewatch MPS 80658
1998 06 21.44524 21 14 28.21 -15 49 25.4 19.2 V 691 – Steward Observatory, Kitt Peak-Spacewatch MPS 80658
1998 06 24.35228 21 13 51.39 -15 56 43.1 17.8 R 699 – Lowell Observatory-LONEOS MPS 1930
1998 06 24.36970 21 13 51.15 -15 56 46.8   699 – Lowell Observatory-LONEOS MPS 1930
1998 06 24.38712 21 13 50.77 -15 56 45.5   699 – Lowell Observatory-LONEOS MPS 1930
1998 06 25.35730 21 13 37.21 -15 59 22.0 18.5 V 691 – Steward Observatory, Kitt Peak-Spacewatch MPS 80658
1998 06 25.37892 21 13 36.89 -15 59 25.5 18.6 V 691 – Steward Observatory, Kitt Peak-Spacewatch MPS 80658
1998 06 25.40128 21 13 36.55 -15 59 29.1 18.6 V 691 – Steward Observatory, Kitt Peak-Spacewatch MPS 80658
1998 07 01.39321 21 11 57.92 -16 16 25.7 17.5 V 691 – Steward Observatory, Kitt Peak-Spacewatch MPS 2179
1998 07 01.41477 21 11 57.51 -16 16 29.9 17.5 V 691 – Steward Observatory, Kitt Peak-Spacewatch MPS 2179
1998 07 01.43630 21 11 57.10 -16 16 33.4 17.5 V 691 – Steward Observatory, Kitt Peak-Spacewatch MPS 2179
1998 07 16.38510 21 06 17.37 -17 06 11.9 17.4 V 691 – Steward Observatory, Kitt Peak-Spacewatch MPS 1852
1998 07 16.41745 21 06 16.50 -17 06 19.1 17.4 V 691 – Steward Observatory, Kitt Peak-Spacewatch MPS 1852
1998 07 16.44992 21 06 15.64 -17 06 26.1 17.5 V 691 – Steward Observatory, Kitt Peak-Spacewatch MPS 1852
1998 07 25.36408 21 02 05.02 -17 39 19.5 17.3 V 691 – Steward Observatory, Kitt Peak-Spacewatch MPS 1852
1998 07 25.38809 21 02 04.30 -17 39 25.0 17.3 V 691 – Steward Observatory, Kitt Peak-Spacewatch MPS 1852
1998 07 25.41013 21 02 03.68 -17 39 29.9 17.3 V 691 – Steward Observatory, Kitt Peak-Spacewatch MPS 1852
1998 08 17.15590 20 50 36.87 -19 03 30.1 17.7   704 – Lincoln Laboratory ETS, New Mexico MPS 1930
1998 08 17.17681 20 50 36.26 -19 03 34.2 17.9   704 – Lincoln Laboratory ETS, New Mexico MPS 1930
1998 08 17.19770 20 50 35.64 -19 03 39.3 17.7   704 – Lincoln Laboratory ETS, New Mexico MPS 1930
1998 08 17.21855 20 50 35.01 -19 03 43.8 17.7   704 – Lincoln Laboratory ETS, New Mexico MPS 1930
1998 08 17.23987 20 50 34.44 -19 03 48.5 17.7   704 – Lincoln Laboratory ETS, New Mexico MPS 1930
1998 09 14.14197 20 40 06.78 -20 22 39.9   699 – Lowell Observatory-LONEOS MPS 2179
1998 09 14.15684 20 40 06.53 -20 22 42.0   699 – Lowell Observatory-LONEOS MPS 2179
1999 08 12.32413 23 33 05.79 -13 20 50.3 17.3 R 699 – Lowell Observatory-LONEOS MPS 5827
1999 08 12.35214 23 33 05.26 -13 20 57.1   699 – Lowell Observatory-LONEOS MPS 5827
1999 08 12.38016 23 33 04.71 -13 21 04.1   699 – Lowell Observatory-LONEOS MPS 5827
1999 09 07.33122 23 22 24.93 -15 16 44.7 16.8 R 699 – Lowell Observatory-LONEOS MPS 5994
1999 09 07.36186 23 22 24.03 -15 16 52.3   699 – Lowell Observatory-LONEOS MPS 5994
1999 09 07.39256 23 22 23.08 -15 16 59.7   699 – Lowell Observatory-LONEOS MPS 5994
1999 09 08.26647 23 21 58.58 -15 20 39.8 17.2 R 703 – Catalina Sky Survey MPS 5994
1999 09 08.27641 23 21 58.27 -15 20 42.8 17.2 R 703 – Catalina Sky Survey MPS 5994
1999 09 08.28644 23 21 58.09 -15 20 45.3 17.2 R 703 – Catalina Sky Survey MPS 5994
1999 09 08.29653 23 21 57.74 -15 20 48.9 17.3 R 703 – Catalina Sky Survey MPS 5994
1999 09 09.40955 23 21 26.15 -15 25 25.6 17.5   704 – Lincoln Laboratory ETS, New Mexico MPS 5994
1999 09 09.42311 23 21 25.79 -15 25 28.7 18.3   704 – Lincoln Laboratory ETS, New Mexico MPS 5994
1999 09 09.43676 23 21 25.40 -15 25 31.5 18.2   704 – Lincoln Laboratory ETS, New Mexico MPS 5994
1999 09 09.45035 23 21 25.05 -15 25 32.2 18.5   704 – Lincoln Laboratory ETS, New Mexico MPS 5994
1999 09 09.46381 23 21 24.65 -15 25 36.5 18.8   704 – Lincoln Laboratory ETS, New Mexico MPS 5994
1999 09 13.28152 23 19 36.44 -15 41 00.7 17.8   704 – Lincoln Laboratory ETS, New Mexico MPS 5994
1999 09 13.29265 23 19 36.12 -15 41 04.9 18.6   704 – Lincoln Laboratory ETS, New Mexico MPS 5994
1999 09 13.30403 23 19 35.75 -15 41 07.5 18.5   704 – Lincoln Laboratory ETS, New Mexico MPS 5994
1999 09 30.27148 23 11 56.35 -16 37 52.6 17.2   704 – Lincoln Laboratory ETS, New Mexico MPS 7200
1999 09 30.28411 23 11 56.02 -16 37 54.2 18.2   704 – Lincoln Laboratory ETS, New Mexico MPS 7200
1999 09 30.29678 23 11 55.75 -16 37 56.8 18.4   704 – Lincoln Laboratory ETS, New Mexico MPS 7200
1999 09 30.30964 23 11 55.39 -16 37 59.7 19.1   704 – Lincoln Laboratory ETS, New Mexico MPS 7200
1999 09 30.32224 23 11 55.06 -16 38 00.8 18.8   704 – Lincoln Laboratory ETS, New Mexico MPS 7200
1999 10 04.23930 23 10 21.09 -16 47 51.9 17.1 R 703 – Catalina Sky Survey MPS 7200
1999 10 04.25195 23 10 20.64 -16 47 53.7 17.3 R 703 – Catalina Sky Survey MPS 7200
1999 10 04.26470 23 10 20.35 -16 47 55.0 17.6 R 703 – Catalina Sky Survey MPS 7200
1999 10 04.27733 23 10 20.02 -16 47 56.7 17.6 R 703 – Catalina Sky Survey MPS 7200
1999 12 04.06516 23 06 29.74 -16 22 20.5 17.3 R 699 – Lowell Observatory-LONEOS MPS 8254
1999 12 04.09569 23 06 30.34 -16 22 15.0   699 – Lowell Observatory-LONEOS MPS 8254
1999 12 04.12622 23 06 30.83 -16 22 09.0   699 – Lowell Observatory-LONEOS MPS 8254
2000 09 21.48448 01 36 10.89 -06 33 45.5 18.5   608 – Haleakala-AMOS MPS 20543
2000 09 21.49547 01 36 10.62 -06 33 48.5 18.0   608 – Haleakala-AMOS MPS 20543
2000 09 21.50585 01 36 10.36 -06 33 50.9 18.0   608 – Haleakala-AMOS MPS 20543
2000 09 22.37687 01 35 50.06 -06 37 25.8 18.0   608 – Haleakala-AMOS MPS 20543
2000 09 22.38775 01 35 49.78 -06 37 27.7 18.5   608 – Haleakala-AMOS MPS 20543
2000 09 22.39869 01 35 49.52 -06 37 30.6 18.7   608 – Haleakala-AMOS MPS 20543
2000 09 23.20521 01 35 30.33 -06 40 44.1   808 – El Leoncito MPS 20543
2000 09 23.22928 01 35 29.81 -06 40 49.6   808 – El Leoncito MPS 20543
2000 10 01.31908 01 32 04.49 -07 12 42.0 17.6   704 – Lincoln Laboratory ETS, New Mexico MPS 20543
2000 10 01.33455 01 32 04.07 -07 12 45.3 17.5   704 – Lincoln Laboratory ETS, New Mexico MPS 20543
2000 10 01.35101 01 32 03.62 -07 12 49.1 17.7   704 – Lincoln Laboratory ETS, New Mexico MPS 20543
2000 10 01.36623 01 32 03.20 -07 12 52.3 17.9   704 – Lincoln Laboratory ETS, New Mexico MPS 20543
2000 10 01.38096 01 32 02.80 -07 12 55.8 17.7   704 – Lincoln Laboratory ETS, New Mexico MPS 20543
2000 10 05.31624 01 30 15.89 -07 27 33.3 17.2   704 – Lincoln Laboratory ETS, New Mexico MPS 20543
2000 10 05.33117 01 30 15.48 -07 27 36.8 17.6   704 – Lincoln Laboratory ETS, New Mexico MPS 20543
2000 10 05.34626 01 30 15.06 -07 27 40.1 17.6   704 – Lincoln Laboratory ETS, New Mexico MPS 20543
